Regional Weather Roundup
Issued by NWS Upton, NY

Current Version | Previous Version | Text Only | Print | Product List | Glossary On
Versions: 1 2 3 4 5 6 7 8 9 10 11 12 13 14 15 16 17 18 19 20 21 22 23 24 25 26 27
000
ASUS41 KOKX 231304
RWROKX

REGIONAL WEATHER ROUNDUP
NATIONAL WEATHER SERVICE NEW YORK NY
900 AM EDT SAT JUL 23 2016

NOTE: "FAIR" INDICATES FEW OR NO CLOUDS BELOW 12,000 FEET WITH NO
SIGNIFICANT WEATHER AND/OR OBSTRUCTIONS TO VISIBILITY.

NYZ071-072-176-178-NJZ106-104-231400-
NEW YORK CITY METRO AREA

CITY           SKY/WX    TMP DP  RH WIND       PRES   REMARKS
Central Park   SUNNY     84  64  50 NW9       29.89S
LaGuardia APRT MOSUNNY   86  64  47 NW13G20   29.86R
Kennedy INTL   SUNNY     88  62  41 W13       29.87S
Newark/Liberty MOSUNNY   87  65  47 W14       29.86S
BRNX BOT. GARD   N/A     84  63  48 W9        29.89R
Wall St Helipt SUNNY     84  66  54 W5        29.87S
Teterboro      SUNNY     85  65  51 W9        29.85S
$$

NYZ177-179-078>081-231400-
LONG ISLAND NEW YORK

CITY           SKY/WX    TMP DP  RH WIND       PRES   REMARKS
FARMINGDALE    SUNNY     86  64  47 NW8       29.85S
ISLIP          SUNNY     86  63  45 NW14G22   29.84S
SHIRLEY        SUNNY     86  64  47 NW15      29.84S
RIVERHEAD      NOT AVBL
WESTHAMPTON    SUNNY     86  62  44 W16G24    29.84S
SOUTHAMPTON      N/A     84  68  58 NW9       29.79R
BRIDGEHAMPTON    N/A     81  70  69 SW2       29.82S
EAST HAMPTON   FAIR      82  67  60 W9G16     29.82R
MONTAUK POINT    N/A     80  69  69 W8        29.82R
$$

NYZ052-065-067-231400-
HUDSON VALLEY

CITY           SKY/WX    TMP DP  RH WIND       PRES   REMARKS
WHITE PLAINS   SUNNY     83  64  52 W8        29.87R
NEWBURGH       SUNNY     79  68  69 W14       29.88S
MONTGOMERY     SUNNY     81  67  62 NW7       29.87S
POUGHKEEPSIE   SUNNY     81  65  58 CALM      29.84S
ALBANY         MOSUNNY   79  62  56 W14       29.82S
$$

NJZ001-105-106-008-010-013-015-019>022-104-231400-
NEW JERSEY

CITY           SKY/WX    TMP DP  RH WIND       PRES   REMARKS
NEWARK/LIBERTY MOSUNNY   87  65  47 W14       29.86S
TETERBORO      SUNNY     85  65  51 W9        29.85S
CALDWELL       SUNNY     85  65  51 W9        29.87S
MORRISTOWN     NOT AVBL
SOMERVILLE     SUNNY     84  68  58 VRB3      29.87S
SUSSEX         SUNNY     82  65  56 VRB6      29.88S
ANDOVER          N/A     80  67  64 VRB5      29.90F
TRENTON        SUNNY     84  71  65 VRB7      29.90S
MILLVILLE      SUNNY     86  72  62 W10       29.92S HX  92
ATLANTIC CITY  SUNNY     84  71  65 W12       29.91S
WRIGHTSTOWN    SUNNY     85  72  65 W9        29.87S HX  90
TOMS RIVER     SUNNY     86  72  62 W8        29.90S HX  92
BELMAR         SUNNY     86  70  58 W8        29.90S HX  90
$$

PAZ047>061-062-071-231400-
EASTERN PENNSYLVANIA

CITY           SKY/WX    TMP DP  RH WIND       PRES   REMARKS
PHILADELPHIA   MOSUNNY   86  70  58 W10       29.91S HX  90
ALLENTOWN      SUNNY     84  71  65 W7        29.91S
SCRANTON       SUNNY     81  64  56 SW9       29.93S
$$

CTZ002-004>006-009-010-012-RIZ004-006-007-MAZ004-011-015-231400-
SOUTHERN NEW ENGLAND
 IN CT

CITY           SKY/WX    TMP DP  RH WIND       PRES   REMARKS
BRADLEY INTL   SUNNY     83  63  50 W15       29.80R
HARTFORD       SUNNY     87  64  46 NW9G22    29.80S
DANBURY        SUNNY     81  63  54 W8        29.87R
WTRBRY/OXFORD  SUNNY     79  64  61 NW6       29.88S
BRIDGEPORT     SUNNY     85  65  51 W14       29.83S
MERIDEN        SUNNY     83  65  54 NW12      29.82S
NEW HAVEN      SUNNY     83  66  56 NW7       29.83R
CHESTER        FAIR      82  64  54 NW12G18   29.83S
GROTON         SUNNY     86  64  47 W12       29.79S
WILLIMANTIC    NOT AVBL

 IN RI

CITY           SKY/WX    TMP DP  RH WIND       PRES   REMARKS
PROVIDENCE     SUNNY     81  68  64 NW12      29.78S
BLOCK ISLAND   SUNNY     78  70  76 W9        29.81R
WESTERLY       SUNNY     84  64  50 NW8       29.80S

 IN MA

CITY           SKY/WX    TMP DP  RH WIND       PRES   REMARKS
BOSTON         SUNNY     84  65  52 W14       29.75F
WORCESTER      SUNNY     77  64  64 W10       29.82S
WESTFIELD      SUNNY     83  61  47 NW9       29.80S
PROVINCETOWN   SUNNY     76  70  82 SW8       29.77R
NANTUCKET      MOSUNNY   74  69  85 SW13      29.78F
$$

ANZ330-335-338-340-345-350-353-355-231400-
COASTAL MARINE OBSERVATIONS


STATION/POSITION TIME  SKY/WX   TEMP    WIND        PRES    VSBY  WAVE
                                AIR SEA DIR/SP/G                  HT/PER
                 (UTC)          (F)     (DEG/KT/KT) (MB)    (MI)  (FT/S)
NY HARB ENTRANCE 1150            75 72  280/  8/ 10 1011.0          3/ 5
20S FIRE ISLAND  1150            76 73  270/ 10/ 12 1010.5          4/ 7
GREAT SOUTH BAY  1230            82 80  290/ 10/ 14   N/A
23 SSW MONTAUK P 1150            72 70  250/ 10/ 12 1009.9          5/ 7
15 E BARNEGAT LI 1222               74                N/A           3/ 6
HUDSON CANYON    1150            78 76              1010.9          5/ 6
KINGS POINT      1200            79 72              1011.0
EXECUTION ROCKS  1200            80     270/  6/  8   N/A
CENTRAL LI SOUND 1200            75 72  270/ 12/ 14   N/A           1/ 3
EASTERN LI SOUND 1200            74 68  270/  8/ 12   N/A
ROBBINS REEF     1200            83     290/ 14/ 17 1010.6
$$


>>>>>>>>>>>>>>>>>>>>>>>>>>>> KEY <<<<<<<<<<<<<<<<<<<<<<<<<<<
>                                                          <
>     SKY/WX - SKY CONDITION/PRESENT WEATHER               <
>     TMP    - TEMPERATURE IN FAHRENHEIT                   <
>     DP     - DEWPOINT IN FAHRENHEIT                      <
>     RH     - RELATIVE HUMIDITY IN PERCENT                <
>     WIND   - DIRECTION AND SPEED IN MPH                  <
>     PRES   - MEAN SEA LEVEL PRESSURE IN INCHES OF HG     <
>     WCI    - WIND CHILL INDEX                            <
>     VSB    - VISIBILITY IN MILES                         <
>     HX     - HEAT INDEX                                  <
>     TC     - TEMPERATURE IN CELSIUS                      <
>     VRB    - VARIABLE WIND DIRECTION                     <
>                                                          <
>>>>>>>>>>>>>>>>>>>>>>>>>>>> KEY <<<<<<<<<<<<<<<<<<<<<<<<<<<






USA.gov is the U.S. government's official web portal to all federal, state and local government web resources and services.